QPF
0.00 0.00 0.00 0.02 0.03 0.03 0.02 0.01 0.01 0.00 0.00 0.00 0.00 0.00 0.00 0.00 0.00 0.00 0.00 0.00 0.00 0.00 0.00 0.00 0.00 0.00 0.00 0.00 0.00 0.00 0.00 0.00 0.00 0.00 0.00 0.00 0.00 0.00 0.00 0.00 0.00 0.00 0.00 0.00
0.00 0.00 0.00 0.02 0.04 0.02 0.00 0.00 0.00 0.00 0.00 0.00 0.00 0.00 0.00 0.00 0.00 0.00 0.00 0.00 0.00 0.00 0.00 0.00 0.00 0.00 0.00 0.00 0.00 0.00 0.00 0.00 0.00 0.00 0.00 0.00 0.00 0.00 0.00 0.00 0.00 0.00 0.00 0.00
0.00 0.00 0.00 0.01 0.02 0.01 0.00 0.00 0.00 0.00 0.00 0.00 0.00 0.00 0.00 0.00 0.00 0.00 0.00 0.00 0.00 0.00 0.00 0.00 0.00 0.00 0.00 0.00 0.00 0.00 0.00 0.00 0.00 0.00 0.00 0.00 0.00 0.01 0.01 0.01 0.01 0.01 0.00 0.00
0.00 0.00 0.01 0.01 0.00 0.00 0.00 0.00 0.00 0.00 0.00 0.00 0.00 0.00 0.00 0.00 0.00 0.00 0.00 0.00 0.00 0.00 0.00 0.00 0.00 0.00 0.00 0.00 0.00 0.00 0.00 0.00 0.00 0.00 0.00 0.00 0.00 0.00 0.00 0.00 0.01 0.01 0.01 0.00
0.00 0.00 0.00 0.00 0.00 0.00 0.00 0.00 0.00 0.00 0.00 0.00 0.00 0.00 0.00 0.00 0.00 0.00 0.00 0.00 0.00 0.00 0.00 0.00 0.00 0.00 0.00 0.00 0.00 0.01 0.01 0.01 0.01 0.00 0.00 0.00 0.00 0.00 0.00 0.00 0.00 0.00 0.00 0.01
0.00 0.00 0.00 0.00 0.00 0.00 0.00 0.00 0.00 0.00 0.00 0.00 0.00 0.00 0.00 0.00 0.00 0.00 0.00 0.00 0.00 0.00 0.00 0.00 0.00 0.00 0.01 0.01 0.01 0.02 0.02 0.02 0.02 0.01 0.01 0.01 0.00 0.00 0.00 0.00 0.00 0.00 0.00 0.01
0.00 0.00 0.00 0.00 0.00 0.00 0.00 0.00 0.00 0.00 0.00 0.00 0.00 0.00 0.00 0.00 0.00 0.00 0.00 0.00 0.00 0.00 0.00 0.00 0.00 0.01 0.02 0.02 0.02 0.03 0.04 0.04 0.03 0.02 0.02 0.02 0.01 0.01 0.01 0.01 0.01 0.01 0.00 0.00
0.00 0.00 0.00 0.00 0.00 0.00 0.00 0.00 0.00 0.00 0.00 0.00 0.00 0.00 0.00 0.00 0.00 0.00 0.00 0.00 0.00 0.00 0.00 0.00 0.01 0.02 0.04 0.04 0.04 0.04 0.05 0.05 0.04 0.04 0.03 0.03 0.02 0.02 0.01 0.01 0.01 0.01 0.01 0.00
0.00 0.00 0.00 0.00 0.00 0.00 0.00 0.00 0.00 0.00 0.00 0.00 0.00 0.00 0.00 0.00 0.00 0.00 0.00 0.00 0.00 0.00 0.01 0.01 0.01 0.03 0.06 0.06 0.05 0.06 0.06 0.05 0.05 0.05 0.04 0.04 0.04 0.03 0.02 0.01 0.01 0.01 0.01 0.01
0.00 0.00 0.00 0.00 0.00 0.00 0.00 0.00 0.00 0.00 0.00 0.00 0.00 0.00 0.00 0.00 0.00 0.00 0.00 0.00 0.01 0.02 0.02 0.02 0.02 0.03 0.04 0.05 0.07 0.08 0.08 0.07 0.06 0.06 0.05 0.04 0.04 0.04 0.03 0.02 0.01 0.01 0.02 0.02
0.00 0.00 0.00 0.00 0.00 0.00 0.00 0.00 0.00 0.00 0.00 0.00 0.00 0.00 0.00 0.00 0.00 0.00 0.00 0.01 0.02 0.03 0.04 0.03 0.03 0.03 0.04 0.06 0.08 0.10 0.09 0.08 0.07 0.07 0.07 0.06 0.05 0.04 0.03 0.02 0.02 0.01 0.02 0.02
0.00 0.00 0.00 0.00 0.00 0.00 0.00 0.00 0.00 0.00 0.00 0.00 0.00 0.00 0.00 0.00 0.00 0.00 0.01 0.02 0.03 0.04 0.04 0.04 0.04 0.04 0.04 0.06 0.08 0.09 0.08 0.06 0.06 0.06 0.06 0.06 0.04 0.03 0.02 0.01 0.01 0.00 0.01 0.02
0.00 0.00 0.00 0.00 0.00 0.00 0.00 0.00 0.00 0.00 0.00 0.00 0.00 0.00 0.00 0.00 0.00 0.01 0.01 0.03 0.04 0.04 0.04 0.04 0.04 0.04 0.04 0.06 0.07 0.07 0.06 0.05 0.04 0.04 0.04 0.03 0.03 0.02 0.02 0.01 0.00 0.00 0.00 0.01
0.00 0.00 0.00 0.00 0.00 0.00 0.00 0.00 0.00 0.00 0.00 0.00 0.00 0.00 0.00 0.00 0.00 0.00 0.02 0.03 0.04 0.03 0.03 0.04 0.04 0.04 0.05 0.05 0.05 0.05 0.04 0.04 0.04 0.03 0.02 0.02 0.03 0.03 0.03 0.02 0.01 0.01 0.01 0.00
0.00 0.00 0.00 0.00 0.00 0.00 0.00 0.00 0.00 0.00 0.00 0.00 0.00 0.00 0.00 0.00 0.00 0.01 0.02 0.03 0.03 0.03 0.03 0.03 0.04 0.05 0.05 0.05 0.04 0.04 0.04 0.04 0.03 0.03 0.02 0.02 0.02 0.02 0.02 0.03 0.03 0.04 0.01 0.00
0.00 0.00 0.00 0.00 0.00 0.00 0.00 0.00 0.00 0.00 0.00 0.00 0.00 0.00 0.00 0.00 0.00 0.00 0.01 0.02 0.03 0.03 0.04 0.04 0.06 0.07 0.05 0.04 0.04 0.03 0.03 0.02 0.02 0.02 0.02 0.02 0.02 0.02 0.02 0.03 0.04 0.04 0.03 0.01
0.00 0.00 0.00 0.00 0.00 0.00 0.00 0.00 0.00 0.00 0.00 0.00 0.00 0.00 0.00 0.00 0.00 0.01 0.01 0.02 0.02 0.03 0.04 0.04 0.05 0.06 0.05 0.03 0.03 0.03 0.02 0.02 0.01 0.01 0.01 0.02 0.02 0.02 0.02 0.03 0.05 0.05 0.04 0.02
0.00 0.00 0.00 0.00 0.00 0.00 0.00 0.00 0.00 0.00 0.00 0.00 0.00 0.00 0.00 0.00 0.00 0.01 0.01 0.02 0.02 0.02 0.03 0.03 0.03 0.05 0.04 0.02 0.01 0.02 0.02 0.02 0.01 0.01 0.01 0.01 0.02 0.02 0.03 0.04 0.04 0.04 0.03 0.02
0.00 0.00 0.00 0.00 0.00 0.00 0.00 0.00 0.00 0.00 0.00 0.00 0.00 0.00 0.00 0.00 0.00 0.00 0.01 0.02 0.04 0.05 0.04 0.03 0.03 0.04 0.03 0.02 0.01 0.02 0.02 0.01 0.01 0.01 0.01 0.01 0.01 0.02 0.02 0.03 0.03 0.03 0.02 0.01
0.00 0.00 0.00 0.00 0.00 0.00 0.00 0.00 0.00 0.00 0.00 0.00 0.00 0.00 0.00 0.00 0.00 0.00 0.01 0.02 0.03 0.04 0.03 0.03 0.03 0.03 0.02 0.01 0.01 0.01 0.02 0.01 0.01 0.01 0.01 0.01 0.01 0.02 0.02 0.02 0.02 0.03 0.03 0.02
0.00 0.00 0.00 0.00 0.00 0.00 0.00 0.00 0.00 0.00 0.00 0.00 0.00 0.00 0.00 0.00 0.00 0.00 0.01 0.02 0.02 0.02 0.02 0.04 0.03 0.03 0.02 0.02 0.01 0.02 0.01 0.01 0.01 0.01 0.01 0.01 0.01 0.02 0.02 0.02 0.02 0.03 0.03 0.02
0.00 0.00 0.00 0.00 0.00 0.00 0.00 0.00 0.00 0.00 0.00 0.00 0.00 0.00 0.00 0.00 0.00 0.00 0.01 0.01 0.02 0.03 0.02 0.02 0.03 0.04 0.03 0.02 0.02 0.02 0.01 0.01 0.01 0.01 0.00 0.00 0.01 0.01 0.01 0.01 0.01 0.02 0.01 0.01
0.00 0.00 0.00 0.00 0.00 0.00 0.00 0.00 0.00 0.00 0.00 0.00 0.00 0.00 0.00 0.00 0.00 0.00 0.01 0.00 0.01 0.02 0.01 0.01 0.02 0.03 0.04 0.03 0.03 0.03 0.03 0.02 0.01 0.01 0.01 0.01 0.01 0.01 0.01 0.01 0.01 0.01 0.00 0.00
0.00 0.00 0.00 0.00 0.00 0.00 0.00 0.00 0.00 0.00 0.00 0.00 0.00 0.00 0.00 0.00 0.00 0.00 0.00 0.00 0.01 0.01 0.01 0.01 0.01 0.02 0.03 0.03 0.05 0.05 0.04 0.03 0.02 0.02 0.01 0.01 0.01 0.00 0.00 0.00 0.00 0.00 0.00 0.00
0.00 0.00 0.00 0.00 0.00 0.00 0.00 0.00 0.00 0.00 0.00 0.00 0.00 0.00 0.00 0.00 0.00 0.00 0.00 0.00 0.00 0.00 0.00 0.01 0.01 0.02 0.02 0.03 0.05 0.06 0.06 0.04 0.04 0.03 0.03 0.02 0.01 0.01 0.01 0.01 0.01 0.01 0.01 0.01
0.00 0.00 0.00 0.00 0.00 0.00 0.00 0.00 0.00 0.00 0.00 0.00 0.00 0.00 0.00 0.00 0.00 0.00 0.00 0.00 0.00 0.00 0.00 0.00 0.01 0.02 0.01 0.02 0.05 0.07 0.07 0.07 0.08 0.07 0.05 0.04 0.03 0.02 0.02 0.02 0.02 0.02 0.02 0.01
0.00 0.00 0.00 0.00 0.00 0.00 0.00 0.00 0.00 0.00 0.00 0.00 0.00 0.00 0.00 0.00 0.00 0.00 0.00 0.00 0.00 0.00 0.00 0.00 0.00 0.01 0.01 0.01 0.02 0.04 0.06 0.08 0.10 0.09 0.06 0.06 0.06 0.06 0.05 0.04 0.04 0.04 0.03 0.03
MSLP
1014.58 1014.87 1015.19 1015.55 1015.93 1016.32 1016.69 1017.00 1017.23 1017.34 1017.32 1017.16 1016.88 1016.49 1016.03 1015.51 1014.97 1014.42 1013.87 1013.32 1012.77 1012.22 1011.66 1011.11 1010.57 1010.05 1009.57 1009.14 1008.78 1008.49 1008.28 1008.13 1008.04 1007.99 1007.98 1007.99 1007.99 1007.99 1007.98 1007.93 1007.86 1007.75 1007.61 1007.43
1015.32 1015.67 1016.00 1016.30 1016.58 1016.84 1017.06 1017.23 1017.33 1017.36 1017.29 1017.13 1016.86 1016.50 1016.05 1015.53 1014.95 1014.33 1013.68 1013.01 1012.33 1011.65 1010.98 1010.34 1009.73 1009.17 1008.65 1008.20 1007.82 1007.50 1007.25 1007.06 1006.93 1006.85 1006.82 1006.83 1006.86 1006.91 1006.96 1006.99 1007.01 1006.98 1006.92 1006.81
1016.00 1016.38 1016.70 1016.95 1017.15 1017.29 1017.38 1017.43 1017.42 1017.36 1017.24 1017.04 1016.76 1016.40 1015.94 1015.40 1014.77 1014.08 1013.34 1012.57 1011.78 1011.00 1010.24 1009.53 1008.87 1008.27 1007.74 1007.27 1006.86 1006.51 1006.22 1005.98 1005.81 1005.69 1005.63 1005.63 1005.68 1005.76 1005.86 1005.96 1006.05 1006.11 1006.11 1006.07
1016.59 1016.97 1017.25 1017.45 1017.56 1017.60 1017.59 1017.53 1017.43 1017.29 1017.11 1016.87 1016.56 1016.16 1015.68 1015.11 1014.44 1013.69 1012.88 1012.03 1011.17 1010.32 1009.50 1008.74 1008.05 1007.42 1006.86 1006.37 1005.93 1005.55 1005.22 1004.94 1004.72 1004.56 1004.47 1004.45 1004.50 1004.61 1004.75 1004.91 1005.05 1005.17 1005.24 1005.24
1017.06 1017.39 1017.62 1017.75 1017.79 1017.75 1017.65 1017.51 1017.33 1017.12 1016.87 1016.58 1016.24 1015.82 1015.31 1014.70 1014.01 1013.22 1012.37 1011.48 1010.57 1009.68 1008.83 1008.04 1007.32 1006.67 1006.08 1005.56 1005.09 1004.67 1004.29 1003.97 1003.70 1003.50 1003.38 1003.35 1003.40 1003.52 1003.69 1003.88 1004.07 1004.23 1004.34 1004.39
1017.38 1017.63 1017.79 1017.85 1017.83 1017.72 1017.56 1017.35 1017.10 1016.83 1016.54 1016.21 1015.83 1015.39 1014.86 1014.25 1013.54 1012.74 1011.88 1010.97 1010.05 1009.15 1008.28 1007.47 1006.73 1006.05 1005.43 1004.87 1004.36 1003.89 1003.46 1003.09 1002.78 1002.55 1002.41 1002.36 1002.40 1002.53 1002.72 1002.93 1003.15 1003.34 1003.48 1003.55
1017.51 1017.67 1017.76 1017.76 1017.68 1017.52 1017.31 1017.06 1016.77 1016.47 1016.14 1015.78 1015.39 1014.93 1014.40 1013.79 1013.10 1012.32 1011.47 1010.58 1009.67 1008.77 1007.89 1007.07 1006.29 1005.58 1004.92 1004.31 1003.74 1003.22 1002.75 1002.33 1001.99 1001.72 1001.56 1001.50 1001.54 1001.66 1001.85 1002.08 1002.31 1002.52 1002.68 1002.77
1017.45 1017.53 1017.55 1017.49 1017.37 1017.19 1016.95 1016.67 1016.37 1016.04 1015.70 1015.33 1014.93 1014.48 1013.97 1013.38 1012.72 1011.98 1011.17 1010.31 1009.43 1008.54 1007.66 1006.82 1006.01 1005.25 1004.54 1003.87 1003.25 1002.67 1002.15 1001.69 1001.31 1001.02 1000.84 1000.76 1000.79 1000.91 1001.10 1001.33 1001.57 1001.78 1001.95 1002.05
1017.20 1017.21 1017.18 1017.10 1016.96 1016.76 1016.52 1016.24 1015.94 1015.61 1015.26 1014.90 1014.50 1014.07 1013.58 1013.04 1012.42 1011.73 1010.97 1010.15 1009.30 1008.43 1007.55 1006.68 1005.84 1005.03 1004.26 1003.53 1002.84 1002.21 1001.64 1001.14 1000.74 1000.43 1000.23 1000.14 1000.17 1000.28 1000.45 1000.67 1000.90 1001.12 1001.29 1001.41
1016.77 1016.75 1016.70 1016.61 1016.48 1016.30 1016.08 1015.81 1015.52 1015.20 1014.86 1014.50 1014.12 1013.71 1013.25 1012.74 1012.17 1011.53 1010.82 1010.05 1009.23 1008.37 1007.49 1006.60 1005.72 1004.86 1004.03 1003.24 1002.50 1001.82 1001.21 1000.69 1000.26 999.94 999.73 999.63 999.64 999.74 999.90 1000.10 1000.32 1000.53 1000.71 1000.84
1016.20 1016.18 1016.15 1016.09 1015.99 1015.84 1015.65 1015.42 1015.14 1014.84 1014.51 1014.16 1013.79 1013.40 1012.97 1012.49 1011.95 1011.36 1010.69 1009.96 1009.16 1008.32 1007.43 1006.52 1005.61 1004.70 1003.82 1002.98 1002.20 1001.48 1000.85 1000.31 999.87 999.54 999.33 999.22 999.21 999.29 999.43 999.62 999.82 1000.02 1000.19 1000.34
1015.56 1015.57 1015.58 1015.57 1015.52 1015.42 1015.28 1015.08 1014.84 1014.55 1014.23 1013.89 1013.53 1013.14 1012.72 1012.26 1011.75 1011.18 1010.54 1009.83 1009.05 1008.21 1007.32 1006.40 1005.46 1004.52 1003.60 1002.74 1001.93 1001.19 1000.55 1000.01 999.57 999.24 999.03 998.91 998.89 998.95 999.07 999.22 999.40 999.58 999.76 999.91
1014.90 1014.96 1015.03 1015.08 1015.10 1015.07 1014.97 1014.82 1014.60 1014.34 1014.03 1013.69 1013.32 1012.93 1012.51 1012.05 1011.55 1010.99 1010.36 1009.66 1008.89 1008.05 1007.15 1006.22 1005.26 1004.30 1003.38 1002.49 1001.68 1000.95 1000.31 999.78 999.36 999.04 998.83 998.72 998.69 998.72 998.81 998.94 999.09 999.25 999.42 999.57
1014.28 1014.40 1014.53 1014.65 1014.74 1014.77 1014.73 1014.62 1014.44 1014.19 1013.89 1013.55 1013.17 1012.77 1012.34 1011.87 1011.36 1010.80 1010.17 1009.47 1008.69 1007.85 1006.94 1006.00 1005.03 1004.08 1003.15 1002.27 1001.47 1000.75 1000.14 999.63 999.23 998.94 998.74 998.63 998.59 998.61 998.68 998.78 998.90 999.04 999.19 999.33
1013.72 1013.90 1014.09 1014.28 1014.43 1014.52 1014.53 1014.46 1014.31 1014.09 1013.80 1013.46 1013.08 1012.67 1012.22 1011.74 1011.21 1010.63 1009.99 1009.28 1008.49 1007.63 1006.72 1005.78 1004.81 1003.86 1002.94 1002.08 1001.30 1000.61 1000.03 999.56 999.19 998.92 998.74 998.64 998.60 998.61 998.66 998.74 998.84 998.96 999.09 999.22
1013.24 1013.46 1013.70 1013.94 1014.14 1014.28 1014.34 1014.31 1014.20 1014.00 1013.73 1013.40 1013.02 1012.60 1012.15 1011.65 1011.11 1010.51 1009.85 1009.12 1008.32 1007.46 1006.54 1005.59 1004.62 1003.67 1002.77 1001.93 1001.17 1000.52 999.97 999.53 999.20 998.96 998.80 998.71 998.68 998.69 998.74 998.81 998.90 999.00 999.12 999.24
1012.82 1013.07 1013.35 1013.62 1013.85 1014.03 1014.13 1014.13 1014.05 1013.88 1013.64 1013.33 1012.97 1012.56 1012.11 1011.61 1011.06 1010.45 1009.78 1009.03 1008.22 1007.34 1006.41 1005.45 1004.49 1003.55 1002.65 1001.83 1001.10 1000.47 999.96 999.55 999.24 999.03 998.89 998.82 998.80 998.83 998.88 998.95 999.04 999.14 999.26 999.38
1012.45 1012.71 1013.00 1013.29 1013.54 1013.74 1013.86 1013.89 1013.84 1013.71 1013.50 1013.23 1012.89 1012.51 1012.08 1011.59 1011.05 1010.44 1009.76 1009.00 1008.18 1007.29 1006.35 1005.39 1004.43 1003.49 1002.60 1001.79 1001.07 1000.46 999.96 999.58 999.29 999.09 998.98 998.93 998.93 998.97 999.03 999.12 999.22 999.34 999.46 999.59
1012.10 1012.37 1012.66 1012.94 1013.19 1013.39 1013.52 1013.58 1013.55 1013.46 1013.29 1013.06 1012.77 1012.43 1012.03 1011.57 1011.05 1010.46 1009.78 1009.03 1008.21 1007.31 1006.37 1005.41 1004.44 1003.50 1002.62 1001.81 1001.10 1000.49 1000.00 999.61 999.34 999.15 999.05 999.01 999.03 999.08 999.17 999.28 999.41 999.54 999.68 999.83
1011.78 1012.04 1012.32 1012.58 1012.81 1013.00 1013.13 1013.19 1013.19 1013.13 1013.01 1012.83 1012.59 1012.30 1011.96 1011.54 1011.06 1010.49 1009.84 1009.10 1008.29 1007.40 1006.46 1005.50 1004.54 1003.60 1002.71 1001.90 1001.18 1000.57 1000.07 999.68 999.39 999.20 999.10 999.06 999.09 999.16 999.26 999.40 999.55 999.71 999.88 1000.05
1011.49 1011.74 1011.99 1012.23 1012.43 1012.60 1012.71 1012.78 1012.80 1012.76 1012.68 1012.56 1012.38 1012.15 1011.86 1011.50 1011.06 1010.53 1009.92 1009.21 1008.41 1007.55 1006.62 1005.67 1004.71 1003.78 1002.89 1002.07 1001.35 1000.72 1000.20 999.79 999.49 999.28 999.16 999.12 999.13 999.21 999.32 999.47 999.64 999.82 1000.01 1000.21
1011.22 1011.47 1011.70 1011.91 1012.08 1012.22 1012.32 1012.39 1012.41 1012.41 1012.36 1012.29 1012.17 1012.00 1011.76 1011.46 1011.08 1010.60 1010.03 1009.35 1008.59 1007.75 1006.86 1005.92 1004.98 1004.06 1003.18 1002.36 1001.63 1000.99 1000.45 1000.01 999.68 999.43 999.28 999.21 999.21 999.26 999.36 999.51 999.68 999.88 1000.09 1000.29
1010.98 1011.23 1011.45 1011.63 1011.79 1011.91 1011.99 1012.06 1012.09 1012.11 1012.11 1012.07 1012.00 1011.89 1011.72 1011.47 1011.14 1010.71 1010.18 1009.55 1008.83 1008.03 1007.17 1006.27 1005.35 1004.45 1003.59 1002.78 1002.04 1001.39 1000.83 1000.37 999.99 999.71 999.52 999.40 999.35 999.37 999.45 999.57 999.72 999.91 1000.11 1000.32
1010.73 1010.99 1011.22 1011.40 1011.54 1011.65 1011.74 1011.81 1011.87 1011.92 1011.95 1011.96 1011.94 1011.87 1011.75 1011.55 1011.26 1010.88 1010.40 1009.81 1009.14 1008.38 1007.56 1006.70 1005.83 1004.96 1004.13 1003.34 1002.61 1001.96 1001.38 1000.89 1000.48 1000.15 999.91 999.73 999.63 999.59 999.62 999.69 999.81 999.97 1000.15 1000.34
1010.43 1010.72 1010.96 1011.16 1011.32 1011.45 1011.56 1011.66 1011.75 1011.83 1011.90 1011.96 1011.98 1011.96 1011.88 1011.72 1011.48 1011.13 1010.69 1010.15 1009.51 1008.80 1008.03 1007.23 1006.40 1005.58 1004.79 1004.03 1003.32 1002.68 1002.10 1001.59 1001.15 1000.78 1000.48 1000.24 1000.07 999.97 999.93 999.94 1000.00 1000.11 1000.25 1000.42
1010.02 1010.34 1010.63 1010.86 1011.07 1011.24 1011.40 1011.55 1011.69 1011.83 1011.95 1012.06 1012.13 1012.15 1012.11 1011.98 1011.77 1011.46 1011.05 1010.54 1009.95 1009.28 1008.57 1007.82 1007.05 1006.28 1005.54 1004.83 1004.16 1003.53 1002.96 1002.45 1001.99 1001.58 1001.23 1000.94 1000.70 1000.53 1000.41 1000.35 1000.35 1000.40 1000.49 1000.61
1009.43 1009.81 1010.15 1010.45 1010.72 1010.97 1011.20 1011.42 1011.64 1011.85 1012.04 1012.20 1012.33 1012.39 1012.38 1012.29 1012.11 1011.82 1011.44 1010.97 1010.42 1009.80 1009.13 1008.44 1007.73 1007.03 1006.35 1005.69 1005.07 1004.49 1003.94 1003.43 1002.97 1002.54 1002.16 1001.82 1001.52 1001.28 1001.10 1000.97 1000.90 1000.88 1000.92 1001.00
Thickness
5722 5727 5724 5714 5711 5707 5694 5685 5670 5665 5656 5649 5648 5644 5639 5634 5629 5625 5618 5612 5605 5599 5594 5589 5585 5581 5577 5573 5569 5565 5560 5556 5555 5554 5552 5551 5550 5550 5551 5552 5555 5557 5560 5565
5711 5721 5716 5704 5701 5698 5690 5682 5672 5662 5649 5649 5646 5639 5632 5625 5621 5614 5607 5602 5597 5593 5588 5585 5581 5577 5574 5569 5565 5560 5555 5552 5549 5547 5545 5543 5543 5543 5543 5544 5545 5546 5548 5551
5697 5709 5708 5682 5687 5684 5676 5668 5658 5644 5639 5639 5633 5628 5621 5614 5607 5600 5596 5593 5590 5586 5582 5579 5576 5572 5567 5564 5559 5554 5549 5546 5543 5540 5537 5536 5535 5535 5535 5535 5537 5538 5540 5542
5689 5690 5678 5682 5695 5686 5670 5656 5652 5644 5637 5631 5624 5620 5615 5607 5599 5594 5590 5587 5584 5579 5576 5572 5568 5563 5558 5553 5548 5543 5540 5537 5534 5531 5529 5527 5525 5525 5525 5526 5528 5530 5533 5536
5678 5675 5678 5683 5686 5679 5664 5649 5646 5638 5632 5628 5623 5616 5609 5603 5595 5587 5583 5579 5575 5571 5566 5561 5555 5548 5542 5536 5531 5527 5524 5522 5521 5519 5518 5516 5515 5515 5516 5517 5519 5522 5526 5530
5678 5673 5665 5671 5682 5683 5666 5644 5641 5635 5626 5621 5611 5596 5597 5598 5589 5583 5578 5572 5567 5562 5555 5548 5541 5533 5525 5518 5513 5510 5507 5506 5506 5505 5505 5505 5506 5507 5508 5509 5512 5515 5519 5523
5673 5667 5668 5674 5679 5669 5639 5631 5635 5629 5619 5610 5598 5591 5594 5592 5585 5578 5572 5566 5560 5553 5544 5536 5527 5518 5509 5502 5496 5493 5490 5490 5491 5491 5492 5494 5496 5498 5500 5502 5504 5507 5511 5516
5665 5656 5656 5674 5667 5649 5637 5636 5630 5623 5615 5608 5601 5596 5590 5583 5577 5571 5566 5561 5554 5545 5536 5526 5515 5504 5496 5488 5483 5479 5476 5476 5477 5478 5480 5486 5487 5490 5492 5495 5497 5500 5504 5508
5669 5664 5669 5670 5660 5652 5642 5633 5628 5620 5615 5607 5600 5592 5585 5578 5571 5566 5561 5555 5547 5538 5529 5519 5507 5494 5486 5480 5474 5470 5467 5466 5467 5468 5471 5474 5478 5482 5485 5488 5491 5495 5498 5502
5676 5672 5669 5662 5658 5652 5646 5638 5631 5624 5615 5605 5596 5588 5580 5572 5567 5562 5557 5550 5542 5532 5522 5513 5503 5492 5481 5474 5469 5465 5462 5461 5461 5463 5465 5468 5472 5477 5481 5485 5487 5491 5494 5498
5674 5673 5668 5662 5657 5652 5646 5638 5630 5622 5613 5603 5593 5584 5575 5568 5563 5558 5553 5546 5536 5526 5516 5508 5500 5491 5483 5475 5468 5464 5461 5460 5460 5461 5463 5467 5471 5475 5480 5484 5487 5489 5492 5496
5666 5667 5660 5655 5656 5652 5642 5633 5625 5616 5608 5599 5589 5579 5571 5564 5560 5555 5550 5543 5534 5525 5516 5508 5500 5493 5487 5479 5472 5466 5463 5462 5462 5462 5464 5468 5471 5476 5480 5483 5487 5490 5492 5495
5677 5673 5664 5662 5655 5648 5640 5632 5623 5614 5604 5595 5586 5577 5569 5562 5558 5554 5549 5541 5533 5525 5517 5510 5503 5497 5491 5484 5478 5473 5469 5467 5467 5467 5469 5471 5474 5476 5479 5482 5486 5488 5490 5492
5681 5674 5664 5658 5650 5645 5638 5630 5621 5611 5602 5593 5584 5576 5567 5561 5557 5553 5547 5540 5533 5527 5520 5514 5507 5502 5496 5490 5485 5481 5478 5477 5476 5474 5475 5476 5478 5481 5482 5483 5484 5484 5485 5487
5679 5672 5662 5657 5650 5643 5635 5626 5617 5607 5599 5592 5583 5574 5566 5560 5555 5551 5547 5542 5536 5531 5525 5519 5513 5508 5503 5498 5493 5490 5487 5485 5484 5484 5484 5484 5485 5487 5488 5488 5486 5484 5482 5482
5675 5668 5661 5653 5646 5638 5631 5623 5612 5604 5596 5588 5580 5572 5565 5559 5554 5551 5548 5544 5540 5535 5531 5524 5519 5514 5510 5506 5502 5499 5496 5498 5497 5494 5493 5493 5493 5493 5493 5491 5489 5486 5484 5483
5669 5662 5656 5648 5642 5635 5627 5619 5610 5602 5594 5585 5578 5571 5565 5559 5555 5552 5549 5546 5542 5538 5535 5529 5524 5521 5518 5514 5510 5507 5505 5504 5506 5502 5500 5500 5499 5499 5498 5497 5494 5491 5488 5486
5671 5662 5654 5647 5637 5631 5624 5617 5609 5601 5592 5585 5578 5570 5564 5558 5553 5550 5548 5547 5546 5544 5540 5535 5531 5529 5526 5522 5518 5516 5514 5512 5511 5508 5507 5506 5506 5505 5503 5502 5499 5496 5492 5490
5666 5658 5650 5644 5637 5629 5621 5614 5606 5599 5591 5584 5576 5569 5562 5557 5552 5549 5548 5547 5547 5545 5543 5540 5537 5536 5534 5531 5528 5524 5522 5521 5518 5516 5515 5514 5512 5511 5509 5507 5504 5501 5498 5496
5661 5653 5647 5640 5634 5626 5618 5612 5605 5597 5590 5583 5575 5568 5562 5558 5554 5550 5548 5546 5544 5542 5541 5542 5543 5542 5541 5539 5537 5533 5531 5529 5527 5524 5522 5520 5519 5517 5515 5514 5511 5508 5506 5504
5655 5648 5642 5635 5629 5624 5617 5610 5602 5595 5588 5581 5574 5567 5561 5556 5552 5549 5547 5547 5546 5545 5545 5547 5548 5547 5546 5545 5545 5543 5540 5538 5535 5532 5529 5527 5525 5524 5523 5521 5519 5516 5515 5514
5649 5643 5637 5631 5624 5618 5612 5605 5599 5592 5585 5579 5572 5566 5560 5556 5551 5547 5544 5542 5543 5543 5545 5549 5550 5550 5551 5553 5553 5552 5549 5547 5543 5540 5538 5535 5533 5532 5531 5529 5527 5526 5525 5524
5643 5638 5632 5626 5620 5613 5607 5601 5595 5588 5582 5576 5569 5563 5557 5552 5547 5544 5543 5542 5541 5541 5544 5548 5549 5552 5556 5559 5559 5558 5557 5554 5551 5548 5546 5544 5542 5541 5540 5539 5537 5536 5535 5535
5636 5631 5627 5622 5616 5608 5601 5596 5590 5583 5577 5571 5565 5559 5554 5548 5544 5541 5538 5538 5538 5539 5543 5545 5548 5552 5557 5560 5560 5560 5560 5559 5558 5556 5554 5552 5551 5550 5549 5548 5547 5546 5546 5546
5630 5625 5621 5616 5609 5601 5596 5591 5585 5578 5571 5565 5559 5554 5549 5545 5540 5539 5537 5536 5535 5537 5540 5543 5546 5550 5554 5556 5557 5558 5559 5559 5560 5561 5560 5560 5559 5558 5557 5557 5556 5555 5554 5554
5625 5619 5616 5611 5603 5596 5590 5585 5578 5571 5565 5558 5553 5548 5544 5541 5538 5535 5533 5532 5531 5532 5535 5538 5541 5544 5547 5549 5552 5553 5555 5557 5560 5562 5563 5565 5566 5565 5565 5564 5564 5563 5562 5562
5620 5615 5609 5603 5596 5591 5586 5580 5573 5566 5559 5553 5547 5542 5538 5535 5533 5530 5528 5526 5526 5527 5529 5531 5534 5536 5539 5542 5545 5547 5548 5551 5553 5557 5561 5565 5567 5568 5569 5569 5568 5568 5568 5568